DW9972 Weather Reports


time (UTC)temp
C
wind
direction
speed
KPH
gust
KPH
rain 1hr
cm
rain 24hr
cm
rain mn
cm
humidity
%
barometer
mb
20260504204848 11 300 11.3 24.1 0.00 0.00 0.00 41 1016.2
20260504204337 11 26 6.4 20.9 0.00 0.00 0.00 42 1016.2
20260504203825 11 321 4.8 17.7 0.00 0.00 0.00 43 1016.2
20260504203338 11 289 11.3 20.9 0.00 0.00 0.00 42 1016.3
20260504202824 11 333 11.3 20.9 0.00 0.00 0.00 42 1016.1
20260504202341 11 329 8.0 17.7 0.00 0.00 0.00 43 1016.3
20260504201838 11 80 6.4 14.5 0.00 0.00 0.00 44 1016.2
20260504201353 11 96 6.4 17.7 0.00 0.00 0.00 44 1016.2
20260504200849 11 329 4.8 20.9 0.00 0.00 0.00 46 1016.3
20260504200337 11 55 9.7 20.9 0.00 0.00 0.00 45 1016.3
20260504195825 11 5 4.8 16.1 0.00 0.00 0.00 46 1016.2
20260504195329 11 93 4.8 17.7 0.00 0.00 0.00 46 1016.3
20260504194838 11 31 8.0 19.3 0.00 0.00 0.00 48 1016.3
20260504194357 11 332 9.7 19.3 0.00 0.00 0.00 47 1016.4
20260504193836 11 34 3.2 16.1 0.00 0.00 0.00 48 1016.4
20260504193324 10 47 4.8 20.9 0.00 0.00 0.00 47 1016.4
20260504192902 10 46 6.4 20.9 0.00 0.00 0.00 49 1016.4
20260504192331 10 355 12.9 22.5 0.00 0.00 0.00 48 1016.3
20260504191831 10 327 4.8 14.5 0.00 0.00 0.00 48 1016.4
20260504191324 10 22 6.4 22.5 0.00 0.00 0.00 48 1016.5
20260504190840 10 319 14.5 22.5 0.00 0.00 0.00 47 1016.4
20260504190328 10 324 11.3 17.7 0.00 0.00 0.00 48 1016.3
20260504185903 10 334 9.7 17.7 0.00 0.00 0.00 49 1016.5
20260504185332 10 355 8.0 25.7 0.00 0.00 0.00 48 1016.4
20260504184838 10 305 9.7 25.7 0.00 0.00 0.00 49 1016.4
20260504184344 10 317 11.3 17.7 0.00 0.00 0.00 47 1016.4
20260504183851 10 325 9.7 14.5 0.00 0.00 0.00 47 1016.4
20260504183339 10 46 6.4 24.1 0.00 0.00 0.00 48 1016.5
20260504182838 10 355 12.9 24.1 0.00 0.00 0.00 50 1016.5
20260504182328 10 333 6.4 17.7 0.00 0.00 0.00 47 1016.4
20260504181837 11 320 4.8 22.5 0.00 0.00 0.00 48 1016.6
20260504181332 11 315 12.9 22.5 0.00 0.00 0.00 47 1016.5
20260504180840 10 57 4.8 17.7 0.00 0.00 0.00 51 1016.5
20260504180342 10 314 9.7 22.5 0.00 0.00 0.00 49 1016.6
20260504175855 11 329 14.5 22.5 0.00 0.00 0.00 48 1016.6
20260504175324 11 43 8.0 20.9 0.00 0.00 0.00 47 1016.6
20260504174833 11 336 11.3 20.9 0.00 0.00 0.00 47 1016.7
20260504174339 11 270 6.4 17.7 0.00 0.00 0.00 46 1016.7
20260504173849 12 293 6.4 14.5 0.00 0.00 0.00 45 1016.8
20260504173340 11 23 4.8 12.9 0.00 0.00 0.00 48 1016.6
20260504172834 11 330 3.2 11.3 0.00 0.00 0.00 46 1016.7
20260504172404 11 75 6.4 11.3 0.00 0.00 0.00 48 1016.8
20260504171832 11 142 3.2 12.9 0.00 0.00 0.00 48 1016.8
20260504171403 10 110 4.8 14.5 0.00 0.00 0.00 51 1016.9
20260504170838 10 38 3.2 17.7 0.00 0.00 0.00 49 1016.8
20260504170349 9 334 6.4 19.3 0.00 0.00 0.00 50 1016.8
20260504160336 8 267 0.0 6.4 0.00 0.00 0.00 56 1016.9
20260504150855 7 34 1.6 6.4 0.00 0.00 0.00 59 1017.3
20260504150339 7 311 4.8 8.0 0.00 0.00 0.00 56 1017.3
20260504140833 6 143 0.0 4.8 0.00 0.00 0.00 63 1017.4
20260504140343 6 143 0.0 4.8 0.00 0.00 0.00 64 1017.4
20260504130327 5 355 1.6 3.2 0.00 0.00 0.00 63 1017.1
20260504110340 7 304 12.9 24.1 0.00 0.00 0.00 52 1016.4
20260504100352 8 331 8.0 20.9 0.00 0.00 0.00 48 1016.2
20260504081825 11 360 19.3 37.0 0.00 0.00 0.00 44 1013.6
20260504081335 10 319 20.9 40.2 0.00 0.00 0.00 47 1013.4
20260504080849 7 360 14.5 40.2 0.00 0.00 0.00 53 1013.2
20260504080337 7 105 1.6 9.7 0.00 0.00 0.00 54 1012.9
20260504070345 7 225 1.6 4.8 0.00 0.00 0.00 52 1011.8
20260504050333 10 190 1.6 4.8 0.00 0.00 0.00 45 1011.9
20260504045835 11 174 0.0 8.0 0.00 0.00 0.00 46 1011.9
20260504045326 11 169 3.2 8.0 0.00 0.00 0.00 44 1012.0
20260504044836 11 199 3.2 6.4 0.00 0.00 0.00 44 1011.9
20260504044345 11 201 1.6 9.7 0.00 0.00 0.00 44 1011.9
20260504043839 11 210 4.8 8.0 0.00 0.00 0.00 44 1011.9
20260504043347 11 221 0.0 4.8 0.00 0.00 0.00 43 1011.9
20260504042833 12 223 1.6 4.8 0.00 0.00 0.00 42 1011.8
20260504042333 12 221 3.2 4.8 0.00 0.00 0.00 40 1011.9
20260504041840 12 223 1.6 4.8 0.00 0.00 0.00 39 1011.8
20260504041339 12 223 0.0 4.8 0.00 0.00 0.00 39 1011.7
20260504040855 13 222 1.6 6.4 0.00 0.00 0.00 37 1011.7
20260504040342 13 222 3.2 6.4 0.00 0.00 0.00 38 1011.7
20260504035837 13 275 1.6 3.2 0.00 0.00 0.00 37 1011.6
20260504035323 14 273 1.6 3.2 0.00 0.00 0.00 36 1011.7
20260504034840 15 274 0.0 1.6 0.00 0.00 0.00 34 1011.7
20260504034338 15 274 1.6 1.6 0.00 0.00 0.00 33 1011.7
20260504033855 16 273 0.0 1.6 0.00 0.00 0.00 33 1011.6
20260504033326 16 274 0.0 3.2 0.00 0.00 0.00 30 1011.5
20260504032845 16 274 1.6 4.8 0.00 0.00 0.00 29 1011.5
20260504032336 17 273 3.2 8.0 0.00 0.00 0.00 29 1011.4
20260504031903 17 273 3.2 9.7 0.00 0.00 0.00 28 1011.5
20260504031349 17 273 4.8 11.3 0.00 0.00 0.00 29 1011.4
20260504030837 17 268 3.2 9.7 0.00 0.00 0.00 28 1011.4
20260504030400 17 227 4.8 9.7 0.00 0.00 0.00 28 1011.4
20260504025845 17 277 4.8 12.9 0.00 0.00 0.00 28 1011.3
20260504025335 17 279 4.8 12.9 0.00 0.00 0.00 29 1011.2
20260504024844 17 267 4.8 8.0 0.00 0.00 0.00 31 1011.2
20260504024334 17 278 4.8 9.7 0.00 0.00 0.00 31 1011.1
20260504023907 17 278 3.2 11.3 0.00 0.00 0.00 30 1011.1
20260504023341 17 277 4.8 11.3 0.00 0.00 0.00 30 1011.1
20260504022829 18 273 4.8 8.0 0.00 0.00 0.00 28 1011.0
20260504022337 18 278 3.2 6.4 0.00 0.00 0.00 29 1010.9
20260504021827 18 276 1.6 6.4 0.00 0.00 0.00 28 1010.9
20260504021332 18 276 3.2 6.4 0.00 0.00 0.00 28 1011.0
20260504020840 18 276 3.2 6.4 0.00 0.00 0.00 27 1011.0
20260504020330 19 276 3.2 8.0 0.00 0.00 0.00 26 1011.0
20260504015824 19 276 3.2 12.9 0.00 0.00 0.00 26 1010.9
20260504015343 20 306 8.0 12.9 0.00 0.00 0.00 25 1011.0
20260504014834 20 284 3.2 9.7 0.00 0.00 0.00 26 1011.0
20260504014340 20 305 4.8 12.9 0.00 0.00 0.00 26 1011.0
20260504013830 20 276 8.0 12.9 0.00 0.00 0.00 25 1011.0
20260504013337 20 263 3.2 14.5 0.00 0.00 0.00 25 1010.9
20260504012830 20 285 6.4 22.5 0.00 0.00 0.00 24 1011.0
20260504012335 20 281 11.3 22.5 0.00 0.00 0.00 24 1011.0
20260504011841 20 270 8.0 16.1 0.00 0.00 0.00 24 1011.1
20260504011359 20 250 8.0 22.5 0.00 0.00 0.00 24 1011.2
20260504010849 20 283 11.3 27.4 0.00 0.00 0.00 23 1011.2
20260504010336 21 263 11.3 27.4 0.00 0.00 0.00 23 1011.2
20260504005829 21 360 11.3 25.7 0.00 0.00 0.00 23 1011.2
20260504005337 21 304 9.7 25.7 0.00 0.00 0.00 22 1011.2
20260504004848 21 280 12.9 19.3 0.00 0.00 0.00 22 1011.2
20260504004402 21 323 11.3 25.7 0.00 0.00 0.00 21 1011.3
20260504003832 21 304 11.3 25.7 0.00 0.00 0.00 20 1011.3
20260504003340 21 331 8.0 16.1 0.00 0.00 0.00 21 1011.3
20260504002829 22 259 8.0 17.7 0.00 0.00 0.00 20 1011.4
20260504002351 22 276 8.0 22.5 0.00 0.00 0.00 21 1011.4
20260504001835 22 250 12.9 22.5 0.00 0.00 0.00 19 1011.4
20260504001324 22 252 11.3 22.5 0.00 0.00 0.00 21 1011.4
20260504000832 22 298 12.9 22.5 0.00 0.00 0.00 21 1011.5
20260504000336 22 279 4.8 17.7 0.00 0.00 0.00 25 1011.4
20260503235858 22 284 9.7 17.7 0.00 0.00 0.00 22 1011.4
20260503235338 22 267 6.4 17.7 0.00 0.00 0.00 24 1011.5
20260503234857 22 273 9.7 17.7 0.00 0.00 0.00 24 1011.5
20260503234341 21 286 6.4 17.7 0.00 0.00 0.00 24 1011.6
20260503233857 21 269 8.0 22.5 0.00 0.00 0.00 22 1011.5
20260503233335 21 265 9.7 24.1 0.00 0.00 0.00 25 1011.5
20260503232904 21 246 9.7 24.1 0.00 0.00 0.00 24 1011.5
20260503232332 21 259 12.9 24.1 0.00 0.00 0.00 23 1011.7
20260503231838 22 261 4.8 17.7 0.00 0.00 0.00 23 1011.7
20260503231326 22 286 8.0 17.7 0.00 0.00 0.00 24 1011.7
20260503230834 22 234 9.7 17.7 0.00 0.00 0.00 23 1011.8
20260503230350 22 344 4.8 24.1 0.00 0.00 0.00 23 1011.8
20260503225901 21 350 8.0 33.8 0.00 0.00 0.00 24 1011.9
20260503225333 22 180 14.5 33.8 0.00 0.00 0.00 23 1011.9
20260503224835 22 302 8.0 19.3 0.00 0.00 0.00 25 1011.9
20260503224351 21 215 4.8 14.5 0.00 0.00 0.00 29 1011.9
20260503223838 21 265 4.8 19.3 0.00 0.00 0.00 26 1012.0
20260503223347 21 279 8.0 19.3 0.00 0.00 0.00 25 1012.1
20260503222833 21 320 6.4 25.7 0.00 0.00 0.00 28 1012.0
20260503222338 22 222 16.1 25.7 0.00 0.00 0.00 24 1012.3
20260503221831 21 277 16.1 22.5 0.00 0.00 0.00 26 1012.2
20260503221407 22 270 8.0 12.9 0.00 0.00 0.00 26 1012.2
20260503220834 21 309 3.2 14.5 0.00 0.00 0.00 29 1012.3
20260503220328 21 317 6.4 25.7 0.00 0.00 0.00 25 1012.5
20260503215835 21 285 12.9 20.9 0.00 0.00 0.00 23 1012.6
20260503215347 21 211 8.0 29.0 0.00 0.00 0.00 23 1012.5
20260503214837 21 244 14.5 29.0 0.00 0.00 0.00 23 1012.6
20260503214349 21 239 9.7 17.7 0.00 0.00 0.00 22 1012.6
20260503213836 21 304 8.0 16.1 0.00 0.00 0.00 23 1012.6
20260503213343 21 200 6.4 19.3 0.00 0.00 0.00 21 1012.7
20260503212830 21 254 8.0 20.9 0.00 0.00 0.00 23 1012.9
20260503212338 21 324 9.7 20.9 0.00 0.00 0.00 20 1012.8
20260503211848 21 322 4.8 19.3 0.00 0.00 0.00 21 1012.9
20260503211349 21 307 11.3 29.0 0.00 0.00 0.00 22 1013.1
20260503210839 21 238 14.5 29.0 0.00 0.00 0.00 21 1013.0
20260503210336 21 304 8.0 22.5 0.00 0.00 0.00 22 1013.2
20260503205844 21 360 16.1 22.5 0.00 0.00 0.00 23 1013.3
20260503205332 21 308 8.0 22.5 0.00 0.00 0.00 24 1013.2